Newberry, SC

4:42 PM EDT on April 28, 2017 (GMT -0400)
Newberry

Weather History for KEOE - March, 2013

Change the Weather History Date:

Tuesday, March 5, 2013

  Actual Average (KFDW) Record (KFDW)
Temperature  
Mean Temperature 55 °F -  
Max Temperature 69 °F 63 °F 73 °F (2015)
Min Temperature 41 °F 40 °F 32 °F (2014)
Degree Days  
Heating Degree Days 10    
Growing Degree Days 5 (Base 50)    
Moisture  
Dew Point 42 °F    
Average Humidity 66    
Maximum Humidity 94    
Minimum Humidity 49    
Precipitation  
Precipitation 0.07 in - - ()
Sea Level Pressure  
Sea Level Pressure 29.91 in    
Wind  
Wind Speed 8 mph (SSW)    
Max Wind Speed 29 mph    
Max Gust Speed 34 mph    
Visibility 10 miles    
Events Rain    
Averages and records for this station are not official NWS values.
T = Trace of Precipitation, MM = Missing Value Source: NWS Daily Summary

Daily Weather History Graph

Daily Weather History Graph

Search for Another Location

Airport or City:

Trip Planner

Search our weather history database for the weather conditions in past years. The results will help you decide how hot, cold, wet, or windy it might be!

Date:

Astronomy

Mar. 05, 2013 Rise Set
Actual Time 6:50 AM EST 6:26 PM EST
Civil Twilight 6:24 AM EST 6:51 PM EST
Nautical Twilight 5:55 AM EST 7:20 PM EST
Astronomical Twilight 5:26 AM EST 7:49 PM EST
Moon 1:49 AM EST (3/5) 12:15 PM EST (3/5)
Length of Visible Light 12h 26m
Length of Day
11h 36m
Last Quarter, 41% of the Moon is Illuminated
Mar 5
Last Quarter
Mar 11
New
Mar 19
First Quarter
Mar 27
Full
Apr 3
Last Quarter

Hourly Weather History & Observations

Time (EST) Temp. Windchill Dew Point Humidity Pressure Visibility Wind Dir Wind Speed Gust Speed Precip Events Conditions
12:35 AM 44.6 °F 41.4 °F 28.4 °F 53% 30.09 in 10.0 mi SSE 5.8 mph - N/A   Clear
12:55 AM 44.6 °F 43.1 °F 28.4 °F 53% 30.10 in 10.0 mi South 3.5 mph - N/A   Clear
1:35 AM 41.0 °F 39.0 °F 32.0 °F 70% 30.11 in 10.0 mi SW 3.5 mph - N/A   Clear
1:55 AM 41.0 °F 38.0 °F 32.0 °F 70% 30.11 in 10.0 mi SSW 4.6 mph - N/A   Clear
2:15 AM 41.0 °F 38.0 °F 32.0 °F 70% 30.11 in 10.0 mi SSW 4.6 mph - N/A   Clear
2:35 AM 41.0 °F 38.0 °F 32.0 °F 70% 30.10 in 10.0 mi SW 4.6 mph - N/A   Clear
2:55 AM 41.0 °F 38.0 °F 32.0 °F 70% 30.10 in 10.0 mi SSW 4.6 mph - N/A   Clear
3:15 AM 41.0 °F 36.4 °F 32.0 °F 70% 30.09 in 10.0 mi SSW 6.9 mph - N/A   Clear
3:35 AM 42.8 °F 40.1 °F 32.0 °F 66% 30.09 in 10.0 mi SSW 4.6 mph - N/A   Clear
3:55 AM 42.8 °F 40.1 °F 32.0 °F 66% 30.09 in 10.0 mi South 4.6 mph - N/A   Clear
4:15 AM 42.8 °F 40.1 °F 32.0 °F 66% 30.08 in 10.0 mi South 4.6 mph - N/A   Clear
4:35 AM 42.8 °F 39.3 °F 32.0 °F 66% 30.07 in 10.0 mi South 5.8 mph - N/A   Clear
4:55 AM 42.8 °F 39.3 °F 32.0 °F 66% 30.08 in 10.0 mi South 5.8 mph - N/A   Clear
5:35 AM 42.8 °F 40.1 °F 32.0 °F 66% 30.07 in 10.0 mi South 4.6 mph - N/A   Scattered Clouds
5:55 AM 42.8 °F 40.1 °F 32.0 °F 66% 30.07 in 10.0 mi South 4.6 mph - N/A   Mostly Cloudy
6:15 AM 44.6 °F 41.4 °F 32.0 °F 61% 30.07 in 10.0 mi South 5.8 mph - N/A   Overcast
6:35 AM 44.6 °F 42.2 °F 32.0 °F 61% 30.07 in 10.0 mi South 4.6 mph - N/A   Overcast
6:55 AM 44.6 °F 42.2 °F 32.0 °F 61% 30.06 in 10.0 mi South 4.6 mph - N/A   Overcast
7:55 AM 44.6 °F 42.2 °F 33.8 °F 66% 30.06 in 10.0 mi South 4.6 mph - N/A   Overcast
8:15 AM 46.4 °F 44.3 °F 33.8 °F 62% 30.06 in 10.0 mi SW 4.6 mph - N/A   Overcast
8:35 AM 46.4 °F 45.2 °F 35.6 °F 66% 30.06 in 10.0 mi SW 3.5 mph - N/A Rain Light Rain
8:55 AM 46.4 °F 44.3 °F 35.6 °F 66% 30.06 in 10.0 mi South 4.6 mph - N/A   Overcast
9:15 AM 46.4 °F 44.3 °F 37.4 °F 71% 30.06 in 10.0 mi SSW 4.6 mph - N/A   Overcast
9:35 AM 46.4 °F 45.2 °F 37.4 °F 71% 30.04 in 10.0 mi SSW 3.5 mph - N/A   Overcast
9:55 AM 48.2 °F - 39.2 °F 71% 30.04 in 10.0 mi SSW 4.6 mph - N/A   Overcast
10:15 AM 48.2 °F - 39.2 °F 71% 30.03 in 10.0 mi SSW 4.6 mph - N/A   Overcast
10:35 AM 50.0 °F - 41.0 °F 71% 30.02 in 10.0 mi SSW 4.6 mph - N/A   Overcast
10:55 AM 51.8 °F - 41.0 °F 67% 30.01 in 10.0 mi SSW 5.8 mph - N/A   Overcast
11:15 AM 55.4 °F - 41.0 °F 58% 30.00 in 10.0 mi SW 15.0 mph 19.6 mph N/A   Mostly Cloudy
11:35 AM 55.4 °F - 42.8 °F 63% 30.00 in 10.0 mi SW 12.7 mph 19.6 mph N/A   Mostly Cloudy
11:55 AM 59.0 °F - 44.6 °F 59% 29.98 in 10.0 mi SW 10.4 mph - N/A   Mostly Cloudy
12:15 PM 60.8 °F - 44.6 °F 55% 29.96 in 10.0 mi SW 13.8 mph 20.7 mph N/A   Scattered Clouds
12:35 PM 60.8 °F - 46.4 °F 59% 29.95 in 10.0 mi SSW 12.7 mph 20.7 mph N/A   Scattered Clouds
12:55 PM 62.6 °F - 46.4 °F 55% 29.93 in 10.0 mi SW 15.0 mph 23.0 mph N/A   Scattered Clouds
1:15 PM 64.4 °F - 46.4 °F 52% 29.91 in 10.0 mi SSW 10.4 mph - N/A   Scattered Clouds
1:35 PM 64.4 °F - 46.4 °F 52% 29.90 in 10.0 mi SSW 15.0 mph 21.9 mph N/A   Clear
1:55 PM 68.0 °F - 48.2 °F 49% 29.88 in 10.0 mi SSW 10.4 mph 18.4 mph N/A   Scattered Clouds
2:15 PM 66.2 °F - 48.2 °F 52% 29.87 in 10.0 mi SW 20.7 mph 29.9 mph N/A   Mostly Cloudy
2:35 PM 68.0 °F - 50.0 °F 52% 29.85 in 10.0 mi SW 12.7 mph 20.7 mph N/A   Overcast
2:55 PM 66.2 °F - 50.0 °F 56% 29.85 in 10.0 mi SSW 10.4 mph 13.8 mph N/A   Overcast
3:15 PM 68.0 °F - 50.0 °F 52% 29.83 in 10.0 mi SSW 10.4 mph 17.3 mph N/A   Overcast
3:35 PM 68.0 °F - 50.0 °F 52% 29.81 in 10.0 mi SSW 6.9 mph 16.1 mph N/A   Mostly Cloudy
3:55 PM 68.0 °F - 50.0 °F 52% 29.78 in 10.0 mi South 9.2 mph - N/A   Mostly Cloudy
4:15 PM 69.8 °F - 50.0 °F 49% 29.78 in 10.0 mi SSW 16.1 mph 21.9 mph N/A   Mostly Cloudy
4:35 PM 66.2 °F - 51.8 °F 60% 29.78 in 10.0 mi SSW 12.7 mph 23.0 mph N/A   Overcast
4:55 PM 66.2 °F - 51.8 °F 60% 29.78 in 10.0 mi SSW 17.3 mph 28.8 mph N/A   Overcast
5:15 PM 64.4 °F - 51.8 °F 64% 29.77 in 10.0 mi SSW 13.8 mph 27.6 mph N/A   Overcast
5:35 PM 62.6 °F - 51.8 °F 68% 29.73 in 10.0 mi South 12.7 mph 20.7 mph N/A   Overcast
5:55 PM 62.6 °F - 51.8 °F 68% 29.73 in 10.0 mi South 10.4 mph 24.2 mph N/A   Mostly Cloudy
6:15 PM 60.8 °F - 51.8 °F 72% 29.72 in 10.0 mi South 15.0 mph 24.2 mph N/A Rain Light Rain
6:35 PM 60.8 °F - 51.8 °F 72% 29.70 in 10.0 mi South 10.4 mph 19.6 mph N/A Rain Light Rain
6:55 PM 60.8 °F - 53.6 °F 77% 29.68 in 10.0 mi South 11.5 mph 18.4 mph N/A Rain Light Rain
7:15 PM 60.8 °F - 53.6 °F 77% 29.66 in 10.0 mi South 12.7 mph 24.2 mph N/A Rain Light Rain
7:35 PM 59.0 °F - 53.6 °F 82% 29.69 in 10.0 mi SW 15.0 mph 26.5 mph 0.01 in Rain Rain
7:55 PM 59.0 °F - 55.4 °F 88% 29.71 in 10.0 mi SW 15.0 mph 20.7 mph 0.07 in   Overcast
8:15 PM 59.0 °F - 55.4 °F 88% 29.71 in 10.0 mi SW 13.8 mph 19.6 mph N/A   Overcast
8:35 PM 57.2 °F - 53.6 °F 88% 29.71 in 10.0 mi WSW 13.8 mph 17.3 mph N/A   Scattered Clouds
8:55 PM 55.4 °F - 53.6 °F 94% 29.71 in 10.0 mi WSW 10.4 mph 16.1 mph N/A   Clear
9:15 PM 55.4 °F - 51.8 °F 88% 29.71 in 10.0 mi WSW 13.8 mph 21.9 mph N/A   Clear
9:35 PM 55.4 °F - 50.0 °F 82% 29.71 in 10.0 mi WSW 18.4 mph 29.9 mph N/A   Clear
9:55 PM 53.6 °F - 48.2 °F 82% 29.71 in 10.0 mi WSW 13.8 mph 23.0 mph N/A   Clear
10:15 PM 53.6 °F - 44.6 °F 72% 29.71 in 10.0 mi WSW 17.3 mph 27.6 mph N/A   Clear
10:35 PM 53.6 °F - 42.8 °F 67% 29.72 in 10.0 mi West 17.3 mph 31.1 mph N/A   Clear
10:55 PM 51.8 °F - 41.0 °F 67% 29.72 in 10.0 mi West 19.6 mph 32.2 mph N/A   Clear
11:15 PM 50.0 °F - 39.2 °F 66% 29.72 in 10.0 mi WSW 20.7 mph 31.1 mph N/A   Clear
11:35 PM 50.0 °F - 37.4 °F 62% 29.72 in 10.0 mi WSW 25.3 mph 33.4 mph N/A   Clear
11:55 PM 48.2 °F - 35.6 °F 62% 29.73 in 10.0 mi WSW 28.8 mph 34.5 mph N/A   Clear